YN1ZGS-13 Weather Reports


Display with metric or nautical units.
time (UTC)temp
F
wind
direction
speed
MPH
gust
MPH
rain 1hr
in
rain 24hr
in
rain mn
in
humidity
%
barometer
mb
20260507161354 85 60 13.0 0.0 0.00 0.00 0.00 58 1013.0
20260507160354 86 60 13.0 0.0 0.00 0.00 0.00 58 1013.0
20260507155353 87 60 13.0 0.0 0.00 0.00 0.00 58 1013.0
20260507154353 82 60 13.0 0.0 0.00 0.00 0.00 61 1013.0
20260507153352 82 60 13.0 0.0 0.00 0.00 0.00 61 1013.0
20260507152352 83 60 13.0 0.0 0.00 0.00 0.00 61 1013.0
20260507151351 83 80 4.0 0.0 0.00 0.00 0.00 63 1013.0
20260507150351 83 80 4.0 0.0 0.00 0.00 0.00 63 1013.0
20260507145351 83 80 4.0 0.0 0.00 0.00 0.00 63 1013.0
20260507144350 83 80 4.0 0.0 0.00 0.00 0.00 63 1013.0
20260507143350 84 80 4.0 0.0 0.00 0.00 0.00 64 1013.0
20260507142350 79 100 11.0 0.0 0.00 0.00 0.00 67 1013.0
20260507141349 79 100 11.0 0.0 0.00 0.00 0.00 67 1013.0
20260507140349 80 100 11.0 0.0 0.00 0.00 0.00 66 1013.0
20260507135349 81 100 11.0 0.0 0.00 0.00 0.00 66 1013.0
20260507134348 82 100 11.0 0.0 0.00 0.00 0.00 65 1013.0
20260507133347 83 100 11.0 0.0 0.00 0.00 0.00 65 1012.0
20260507132347 83 100 11.0 0.0 0.00 0.00 0.00 65 1012.0
20260507131347 76 120 4.0 0.0 0.00 0.00 0.00 74 1012.0
20260507130346 77 120 4.0 0.0 0.00 0.00 0.00 74 1012.0
20260507125346 78 120 4.0 0.0 0.00 0.00 0.00 74 1012.0
20260507124346 79 120 4.0 0.0 0.00 0.00 0.00 74 1012.0
20260507123346 75 96 10.0 18.0 0.00 0.00 0.00 74 1012.0
20260507122345 74 105 10.0 21.0 0.00 0.00 0.00 74 1011.0
20260507121345 74 140 5.0 0.0 0.00 0.00 0.00 74 1011.0
20260507120344 75 140 5.0 0.0 0.00 0.00 0.00 74 1011.0
20260507115344 75 140 5.0 0.0 0.00 0.00 0.00 74 1011.0
20260507114344 75 140 5.0 0.0 0.00 0.00 0.00 73 1011.0
20260507113343 76 140 5.0 0.0 0.00 0.00 0.00 72 1011.0
20260507112343 76 140 5.0 0.0 0.00 0.00 0.00 69 1011.0
20260507111343 77 140 5.0 0.0 0.00 0.00 0.00 70 1011.0
20260507110343 79 140 6.0 0.0 0.00 0.00 0.00 71 1011.0
20260507105343 74 101 10.0 22.0 0.00 0.00 0.00 66 1011.0
20260507104342 74 101 10.0 21.0 0.00 0.00 0.00 65 1011.0
20260507103342 75 101 10.0 22.0 0.00 0.00 0.00 65 1011.0
20260507102342 74 96 11.0 24.0 0.00 0.00 0.00 63 1011.0
20260507101341 75 96 11.0 24.0 0.00 0.00 0.00 63 1011.0
20260507100341 76 96 11.0 24.0 0.00 0.00 0.00 63 1011.0
20260507095341 76 96 11.0 24.0 0.00 0.00 0.00 63 1011.0
20260507094340 77 96 11.0 24.0 0.00 0.00 0.00 63 1011.0
20260507093340 78 96 12.0 24.0 0.00 0.00 0.00 63 1011.0
20260507092340 75 93 13.0 24.0 0.00 0.00 0.00 64 1011.0
20260507091339 75 93 13.0 24.0 0.00 0.00 0.00 64 1011.0
20260507090339 75 90 13.0 21.0 0.00 0.00 0.00 64 1011.0
20260507085338 76 90 13.0 21.0 0.00 0.00 0.00 64 1011.0
20260507084338 77 90 13.0 21.0 0.00 0.00 0.00 64 1011.0
20260507083338 78 90 13.0 21.0 0.00 0.00 0.00 64 1011.0
20260507082337 80 90 13.0 22.0 0.00 0.00 0.00 64 1011.0
20260507081337 75 90 13.0 22.0 0.00 0.00 0.00 63 1011.0
20260507080337 75 90 13.0 22.0 0.00 0.00 0.00 63 1011.0
20260507075336 75 103 11.0 18.0 0.00 0.00 0.00 63 1011.0
20260507074336 76 103 11.0 18.0 0.00 0.00 0.00 63 1011.0
20260507073336 77 103 11.0 18.0 0.00 0.00 0.00 63 1012.0
20260507072335 77 103 11.0 18.0 0.00 0.00 0.00 63 1012.0
20260507071335 78 103 11.0 18.0 0.00 0.00 0.00 63 1012.0
20260507070335 79 103 11.0 18.0 0.00 0.00 0.00 63 1012.0
20260507065334 80 103 11.0 18.0 0.00 0.00 0.00 63 1012.0
20260507064334 81 103 11.0 18.0 0.00 0.00 0.00 63 1012.0
20260507063334 82 103 11.0 18.0 0.00 0.00 0.00 63 1012.0
20260507062333 83 103 11.0 19.0 0.00 0.00 0.00 63 1012.0
20260507061333 83 103 11.0 19.0 0.00 0.00 0.00 63 1012.0
20260507060333 77 130 11.0 0.0 0.00 0.00 0.00 62 1012.0
20260507055333 78 130 11.0 0.0 0.00 0.00 0.00 62 1012.0
20260507054332 78 130 11.0 0.0 0.00 0.00 0.00 62 1012.0
20260507053332 79 130 11.0 0.0 0.00 0.00 0.00 62 1012.0
20260507052331 80 130 11.0 0.0 0.00 0.00 0.00 62 1012.0
20260507051331 81 130 11.0 0.0 0.00 0.00 0.00 62 1012.0
20260507050331 82 130 11.0 0.0 0.00 0.00 0.00 62 1012.0
20260507045330 82 130 11.0 0.0 0.00 0.00 0.00 62 1012.0
20260507044330 82 130 11.0 0.0 0.00 0.00 0.00 61 1012.0
20260507043329 83 130 11.0 0.0 0.00 0.00 0.00 61 1012.0
20260507042329 83 130 11.0 0.0 0.00 0.00 0.00 59 1012.0
20260507041329 83 110 5.0 0.0 0.00 0.00 0.00 56 1012.0
20260507040328 84 110 5.0 0.0 0.00 0.00 0.00 56 1012.0
20260507035328 85 110 6.0 0.0 0.00 0.00 0.00 56 1012.0
20260507034328 80 120 11.0 0.0 0.00 0.00 0.00 51 1012.0
20260507033327 81 120 11.0 0.0 0.00 0.00 0.00 51 1012.0
20260507032327 82 120 11.0 0.0 0.00 0.00 0.00 51 1012.0
20260507031326 84 120 11.0 0.0 0.00 0.00 0.00 51 1012.0
20260507030326 86 120 11.0 0.0 0.00 0.00 0.00 52 1012.0
20260507025326 87 120 11.0 0.0 0.00 0.00 0.00 52 1012.0
20260507024325 81 95 11.0 21.0 0.00 0.00 0.00 46 1012.0
20260507023325 82 95 12.0 21.0 0.00 0.00 0.00 46 1012.0
20260507022325 82 91 13.0 21.0 0.00 0.00 0.00 46 1011.0
20260507021324 83 91 13.0 21.0 0.00 0.00 0.00 46 1011.0
20260507020324 84 91 13.0 22.0 0.00 0.00 0.00 46 1011.0
20260507015323 82 104 13.0 24.0 0.00 0.00 0.00 46 1011.0
20260507014323 83 104 13.0 24.0 0.00 0.00 0.00 46 1010.0
20260507013323 84 104 13.0 24.0 0.00 0.00 0.00 46 1009.0
20260507012322 85 104 13.0 24.0 0.00 0.00 0.00 46 1009.0
20260507011322 86 104 13.0 24.0 0.00 0.00 0.00 46 1009.0
20260507010322 87 104 13.0 24.0 0.00 0.00 0.00 46 1009.0
20260507005321 94 120 11.0 0.0 0.00 0.00 0.00 43 1009.0
20260507004321 82 104 13.0 24.0 0.00 0.00 0.00 46 1009.0
20260507003321 94 120 11.0 0.0 0.00 0.00 0.00 43 1009.0
20260507002321 84 107 18.0 18.0 0.00 0.00 0.00 41 1009.0
20260507001320 85 107 18.0 18.0 0.00 0.00 0.00 39 1009.0
20260507000321 86 107 18.0 18.0 0.00 0.00 0.00 38 1009.0
20260506235319 88 107 18.0 18.0 0.00 0.00 0.00 37 1009.0
20260506234319 90 107 18.0 18.0 0.00 0.00 0.00 37 1009.0
20260506233318 91 107 18.0 18.0 0.00 0.00 0.00 37 1009.0
20260506232318 90 107 18.0 18.0 0.00 0.00 0.00 36 1008.0
20260506231317 89 107 18.0 18.0 0.00 0.00 0.00 36 1008.0
20260506230317 87 107 18.0 18.0 0.00 0.00 0.00 35 1008.0
20260506225317 88 107 18.0 18.0 0.00 0.00 0.00 35 1008.0
20260506224316 89 107 18.0 18.0 0.00 0.00 0.00 35 1008.0
20260506223316 90 107 18.0 18.0 0.00 0.00 0.00 35 1008.0
20260506222315 91 107 18.0 18.0 0.00 0.00 0.00 35 1008.0
20260506221315 93 107 18.0 18.0 0.00 0.00 0.00 34 1008.0
20260506220315 93 107 18.0 18.0 0.00 0.00 0.00 34 1008.0
20260506215314 94 107 18.0 18.0 0.00 0.00 0.00 34 1008.0
20260506214314 94 107 18.0 18.0 0.00 0.00 0.00 34 1008.0
20260506213314 95 107 18.0 18.0 0.00 0.00 0.00 34 1008.0
20260506212314 96 107 18.0 18.0 0.00 0.00 0.00 34 1008.0
20260506211313 97 107 18.0 19.0 0.00 0.00 0.00 34 1008.0
20260506210313 92 107 18.0 18.0 0.00 0.00 0.00 36 1008.0
20260506205313 93 107 18.0 19.0 0.00 0.00 0.00 36 1008.0
20260506204313 92 100 13.0 0.0 0.00 0.00 0.00 37 1008.0
20260506203312 93 100 13.0 0.0 0.00 0.00 0.00 36 1008.0
20260506202312 94 100 13.0 0.0 0.00 0.00 0.00 35 1008.0
20260506201312 94 100 13.0 0.0 0.00 0.00 0.00 35 1008.0
20260506200311 95 100 13.0 0.0 0.00 0.00 0.00 35 1008.0
20260506195311 96 100 13.0 0.0 0.00 0.00 0.00 34 1008.0
20260506194311 97 100 13.0 0.0 0.00 0.00 0.00 34 1009.0
20260506193310 92 90 15.0 0.0 0.00 0.00 0.00 39 1010.0
20260506192310 92 90 15.0 0.0 0.00 0.00 0.00 39 1010.0
20260506191310 93 90 15.0 0.0 0.00 0.00 0.00 39 1010.0
20260506190309 94 90 16.0 0.0 0.00 0.00 0.00 39 1010.0
20260506185309 94 90 16.0 0.0 0.00 0.00 0.00 39 1010.0
20260506184308 94 90 16.0 0.0 0.00 0.00 0.00 40 1010.0
20260506183308 95 90 16.0 0.0 0.00 0.00 0.00 40 1011.0
20260506182307 91 70 11.0 0.0 0.00 0.00 0.00 46 1011.0
20260506181307 91 70 11.0 0.0 0.00 0.00 0.00 46 1011.0
20260506180307 92 70 11.0 0.0 0.00 0.00 0.00 46 1011.0
20260506175306 92 70 11.0 0.0 0.00 0.00 0.00 46 1011.0
20260506174306 90 70 11.0 0.0 0.00 0.00 0.00 46 1011.0
20260506173306 91 70 11.0 0.0 0.00 0.00 0.00 46 1012.0
20260506172307 92 70 11.0 0.0 0.00 0.00 0.00 46 1012.0
20260506171305 88 80 13.0 0.0 0.00 0.00 0.00 49 1012.0
20260506170305 89 80 13.0 0.0 0.00 0.00 0.00 49 1012.0
20260506165305 89 80 13.0 0.0 0.00 0.00 0.00 49 1012.0
20260506164304 90 80 13.0 0.0 0.00 0.00 0.00 49 1012.0
20260506163304 88 80 13.0 0.0 0.00 0.00 0.00 51 1012.0
20260506162306 89 80 13.0 0.0 0.00 0.00 0.00 52 1012.0